sat.trackr.live / text

‹ back to catalog

YAOGAN-43 02E

NORAD 60949 · 2024-156E

PAYLOAD ACTIVE UNKNOWN

§ Identity

Operator
Country
PRC
Launch date
2024-09-03
Launch site
XICLF
Launch vehicle
Mass (kg)
RCS (m²)

External: N2YO · Heavens-Above · Gunter

§ Orbital elements

Epoch: 2026-09-22T19:03:51.825312Z

Period
94.55 min
Inclination
34.9969°
Eccentricity
0.0004422
Mean motion
15.23018458 rev/d
Perigee alt
493.7 km
Apogee alt
499.8 km
Semi-major
6,874.9 km
B*
3.1797e-4
RAAN
304.3038°
Arg perigee
134.0921°
Mean anomaly
226.0158°
Rev number
11,433

§ Raw data

YAOGAN-43 02E1 60949U 24156E   26265.79434983  .00007637  00000+0  31797-3 0  99962 60949  34.9969 304.3038 0004422 134.0921 226.0158 15.23018458114336

JSON: /api/v1/satellites/60949 · /tle

For live sub-satellite position, see the globe view (requires WebGL).

§ Visibility from observer

Set your observer location to see the next 7 days of passes ≥ 10°. The values pass through the URL so the page stays shareable.

No JS? Fill the form by hand. The geolocation button needs JavaScript.